Oakland, CA

5:52 PM PDT on July 24, 2017 (GMT -0700)
Metro Oakland International

Weather History for KOAK - November, 2013

Change the Weather History Date:

Tuesday, November 12, 2013

  Actual Average Record
Temperature  
Mean Temperature 61 °F 55 °F  
Max Temperature 70 °F 64 °F 72 °F (2016)
Min Temperature 51 °F 46 °F 34 °F (1985)
Degree Days  
Heating Degree Days 4 10  
Month to date heating degree days 101 103  
Since 1 July heating degree days 373 455  
Cooling Degree Days 0 0  
Month to date cooling degree days 0 0  
Year to date cooling degree days 212 137  
Growing Degree Days 10 (Base 50)    
Moisture  
Dew Point 52 °F    
Average Humidity 76    
Maximum Humidity 100    
Minimum Humidity 52    
Precipitation  
Precipitation T in 0.08 in 1.50 in (1984)
Month to date precipitation T 0.91  
Year to date precipitation 3.44 15.61  
Since 1 July precipitation 0.62  
Sea Level Pressure  
Sea Level Pressure 30.23 in    
Wind  
Wind Speed 5 mph (WNW)    
Max Wind Speed 22 mph    
Max Gust Speed 20 mph    
Visibility 10 miles    
Events      
T = Trace of Precipitation, MM = Missing Value Source: NWS Daily Summary

Daily Weather History Graph

Daily Weather History Graph

Search for Another Location

Airport or City:

Trip Planner

Search our weather history database for the weather conditions in past years. The results will help you decide how hot, cold, wet, or windy it might be!

Date:

Astronomy

Nov. 12, 2013 Rise Set
Actual Time 6:46 AM PST 4:59 PM PST
Civil Twilight 6:18 AM PST 5:27 PM PST
Nautical Twilight 5:46 AM PST 5:58 PM PST
Astronomical Twilight 5:15 AM PST 6:29 PM PST
Moon 2:12 PM PST (11/12) 1:46 AM PST (11/12)
Length of Visible Light 11h 09m
Length of Day
10h 13m
Waxing Gibbous, 77% of the Moon is Illuminated
Nov 12
Waxing Gibbous
Nov 17
Full
Nov 25
Last Quarter
Dec 2
New
Dec 9
First Quarter

Hourly Weather History & Observations

Time (PST) Temp. Dew Point Humidity Pressure Visibility Wind Dir Wind Speed Gust Speed Precip Events Conditions
12:53 AM 57.9 °F 51.1 °F 78% 30.17 in 10.0 mi Calm Calm - N/A   Overcast
1:53 AM 57.9 °F 51.1 °F 78% 30.20 in 10.0 mi NW 3.5 mph - N/A   Overcast
2:53 AM 57.9 °F 51.1 °F 78% 30.19 in 10.0 mi NNW 4.6 mph - N/A   Overcast
3:53 AM 57.0 °F 51.1 °F 81% 30.22 in 10.0 mi West 9.2 mph - N/A   Overcast
4:53 AM 57.0 °F 51.1 °F 81% 30.24 in 10.0 mi Calm Calm - N/A   Overcast
5:53 AM 57.9 °F 50.0 °F 75% 30.23 in 10.0 mi East 3.5 mph - N/A   Overcast
6:53 AM 57.9 °F 50.0 °F 75% 30.22 in 10.0 mi SE 4.6 mph - 0.00 in   Overcast
7:53 AM 57.9 °F 57.0 °F 97% 30.24 in 10.0 mi South 4.6 mph - N/A   Overcast
8:53 AM 60.1 °F 57.9 °F 93% 30.27 in 10.0 mi SSW 3.5 mph - N/A   Mostly Cloudy
9:53 AM 62.1 °F 57.9 °F 86% 30.27 in 10.0 mi WNW 5.8 mph - N/A   Mostly Cloudy
10:53 AM 64.0 °F 55.9 °F 75% 30.27 in 10.0 mi NNW 3.5 mph - N/A   Mostly Cloudy
11:53 AM 66.9 °F 48.9 °F 52% 30.25 in 10.0 mi West 8.1 mph - N/A   Mostly Cloudy
12:53 PM 66.9 °F 51.1 °F 57% 30.23 in 10.0 mi WNW 8.1 mph - N/A   Mostly Cloudy
1:53 PM 66.9 °F 52.0 °F 59% 30.21 in 10.0 mi North 11.5 mph 19.6 mph N/A   Mostly Cloudy
2:53 PM 66.9 °F 52.0 °F 59% 30.21 in 10.0 mi NW 10.4 mph - N/A   Scattered Clouds
3:53 PM 66.0 °F 52.0 °F 60% 30.20 in 10.0 mi WNW 8.1 mph - N/A   Scattered Clouds
4:53 PM 64.0 °F 51.1 °F 63% 30.21 in 10.0 mi WNW 10.4 mph - N/A   Partly Cloudy
5:53 PM 62.1 °F 57.9 °F 86% 30.22 in 10.0 mi NW 4.6 mph - N/A   Partly Cloudy
6:53 PM 62.1 °F 57.9 °F 86% 30.23 in 10.0 mi NW 3.5 mph - N/A   Clear
7:53 PM 57.9 °F 52.0 °F 81% 30.25 in 10.0 mi West 5.8 mph - N/A   Clear
8:53 PM 55.0 °F 52.0 °F 89% 30.26 in 10.0 mi NE 3.5 mph - N/A   Clear
9:53 PM 57.0 °F 48.0 °F 72% 30.26 in 10.0 mi South 3.5 mph - N/A   Clear
10:53 PM 55.9 °F 50.0 °F 80% 30.26 in 10.0 mi Calm Calm - N/A   Clear
11:53 PM 55.9 °F 46.9 °F 72% 30.26 in 10.0 mi East 3.5 mph - N/A   Clear